When you browse on this site, cookies collect data to enhance your experience and personalize the content and advertising you see.
Visit our Privacy Policy to learn more. By continuing to use the site, you agree to this use of cookies and data.
  • In Romania
  • List of Countries
  • For 7 days
  • Water Temperature
  • Satellite Maps
  • Weather Map
  • Weather Widgets
  • user-avatar
    Login

    Hourly Weather Adelaide

    Today, 12 December, Wednesday

    Time Temperature Precipitation Wind Pressure Humidity
    00:00 +26°C° 0.1 mm 2 mps 751 mmHg 40%
    01:00 +25°C° 0.1 mm 2 mps 751 mmHg 42%
    02:00 +25°C° 0.1 mm 2 mps 750 mmHg 43%
    03:00 +25°C° 0 mm 1 mps 750 mmHg 47%
    04:00 +25°C° 0.2 mm 1 mps 750 mmHg 49%
    05:00 +26°C° 0.2 mm 2 mps 750 mmHg 52%
    06:00 +27°C° 0.2 mm 2 mps 750 mmHg 54%
    07:00 +28°C° 0 mm 2 mps 750 mmHg 48%
    08:00 +30°C° 0 mm 3 mps 750 mmHg 41%
    09:00 +33°C° 0 mm 3 mps 750 mmHg 35%
    10:00 +34°C° 0 mm 3 mps 749 mmHg 32%
    11:00 +35°C° 0 mm 3 mps 749 mmHg 30%
    12:00 +36°C° 0 mm 4 mps 748 mmHg 27%
    13:00 +36°C° 0 mm 4 mps 748 mmHg 27%
    14:00 +36°C° 0 mm 4 mps 747 mmHg 27%
    15:00 +36°C° 0 mm 4 mps 747 mmHg 27%
    16:00 +34°C° 0 mm 4 mps 747 mmHg 30%
    17:00 +33°C° 0 mm 4 mps 747 mmHg 33%
    18:00 +32°C° 0 mm 4 mps 747 mmHg 36%
    19:00 +28°C° 0 mm 5 mps 747 mmHg 44%
    20:00 +26°C° 0 mm 5 mps 748 mmHg 53%
    21:00 +23°C° 0 mm 6 mps 748 mmHg 62%
    22:00 +21°C° 0.1 mm 6 mps 749 mmHg 67%
    23:00 +20°C° 0.1 mm 6 mps 749 mmHg 73%

    Tomorrow, 13 December, Thursday

    Time Temperature Precipitation Wind Pressure Humidity
    00:00 +18°C° 0.1 mm 7 mps 749 mmHg 78%
    01:00 +18°C° 0.2 mm 7 mps 749 mmHg 77%
    02:00 +17°C° 0.2 mm 8 mps 749 mmHg 75%
    03:00 +17°C° 0.2 mm 9 mps 750 mmHg 73%
    04:00 +16°C° 0.3 mm 9 mps 750 mmHg 70%
    05:00 +16°C° 0.3 mm 10 mps 750 mmHg 68%
    06:00 +14°C° 0.3 mm 10 mps 751 mmHg 65%
    07:00 +14°C° 0.4 mm 10 mps 751 mmHg 62%
    08:00 +14°C° 0.4 mm 10 mps 751 mmHg 59%
    09:00 +16°C° 0.4 mm 11 mps 752 mmHg 56%
    10:00 +16°C° 0.3 mm 11 mps 752 mmHg 53%
    11:00 +16°C° 0.3 mm 11 mps 752 mmHg 51%
    12:00 +17°C° 0.3 mm 12 mps 752 mmHg 49%
    13:00 +17°C° 0.2 mm 12 mps 753 mmHg 49%
    14:00 +16°C° 0.2 mm 11 mps 753 mmHg 48%
    15:00 +16°C° 0.2 mm 11 mps 753 mmHg 48%
    16:00 +16°C° 0.1 mm 11 mps 753 mmHg 52%
    17:00 +14°C° 0.1 mm 11 mps 753 mmHg 56%
    18:00 +13°C° 0.1 mm 10 mps 753 mmHg 60%
    19:00 +13°C° 0.1 mm 10 mps 753 mmHg 62%
    20:00 +13°C° 0.1 mm 10 mps 753 mmHg 64%
    21:00 +13°C° 0.1 mm 10 mps 754 mmHg 66%
    22:00 +13°C° 0.2 mm 10 mps 753 mmHg 67%
    23:00 +13°C° 0.2 mm 10 mps 753 mmHg 68%

    Day after tomorrow, 14 December, Friday

    Time Temperature Precipitation Wind Pressure Humidity
    00:00 +13°C° 0.2 mm 10 mps 753 mmHg 70%
    01:00 +13°C° 0.2 mm 10 mps 752 mmHg 72%
    02:00 +13°C° 0.2 mm 11 mps 751 mmHg 74%
    03:00 +13°C° 0.2 mm 11 mps 750 mmHg 76%
    04:00 +13°C° 0.2 mm 11 mps 750 mmHg 77%
    05:00 +14°C° 0.2 mm 11 mps 750 mmHg 78%
    06:00 +14°C° 0.2 mm 11 mps 750 mmHg 80%
    07:00 +16°C° 0.4 mm 11 mps 749 mmHg 80%
    08:00 +16°C° 0.4 mm 11 mps 749 mmHg 81%
    09:00 +17°C° 0.4 mm 11 mps 749 mmHg 82%
    10:00 +17°C° 0.4 mm 11 mps 749 mmHg 83%
    11:00 +17°C° 0.4 mm 11 mps 749 mmHg 84%
    12:00 +17°C° 0.4 mm 10 mps 749 mmHg 85%
    13:00 +17°C° 0.7 mm 10 mps 749 mmHg 86%
    14:00 +18°C° 0.7 mm 9 mps 748 mmHg 86%
    15:00 +18°C° 0.7 mm 8 mps 748 mmHg 87%
    16:00 +18°C° 0.2 mm 8 mps 748 mmHg 86%
    17:00 +18°C° 0.2 mm 7 mps 749 mmHg 86%
    18:00 +18°C° 0.2 mm 7 mps 749 mmHg 85%
    19:00 +17°C° 0.1 mm 6 mps 749 mmHg 87%
    20:00 +17°C° 0.1 mm 5 mps 750 mmHg 88%
    21:00 +16°C° 0.1 mm 5 mps 750 mmHg 90%
    22:00 +17°C° 0 mm 4 mps 750 mmHg 91%
    23:00 +17°C° 0 mm 4 mps 750 mmHg 92%

    15 December, Saturday

    Time Temperature Precipitation Wind Pressure Humidity
    00:00 +17°C° 0 mm 3 mps 750 mmHg 93%
    01:00 +16°C° 0 mm 3 mps 750 mmHg 92%
    02:00 +16°C° 0 mm 2 mps 749 mmHg 92%
    03:00 +16°C° 0 mm 2 mps 749 mmHg 92%
    04:00 +17°C° 0 mm 2 mps 749 mmHg 88%
    05:00 +17°C° 0 mm 2 mps 750 mmHg 84%
    06:00 +19°C° 0 mm 1 mps 750 mmHg 80%
    07:00 +19°C° 0 mm 2 mps 750 mmHg 72%
    08:00 +21°C° 0 mm 2 mps 750 mmHg 64%
    09:00 +24°C° 0 mm 3 mps 750 mmHg 55%
    10:00 +25°C° 0 mm 3 mps 750 mmHg 52%
    11:00 +26°C° 0 mm 4 mps 750 mmHg 49%
    12:00 +27°C° 0 mm 4 mps 749 mmHg 46%
    13:00 +26°C° 0 mm 5 mps 749 mmHg 48%
    14:00 +26°C° 0 mm 6 mps 748 mmHg 50%
    15:00 +26°C° 0 mm 6 mps 748 mmHg 52%
    16:00 +24°C° 0 mm 6 mps 748 mmHg 61%
    17:00 +22°C° 0 mm 6 mps 748 mmHg 69%
    18:00 +21°C° 0 mm 5 mps 749 mmHg 78%
    19:00 +21°C° 0 mm 5 mps 749 mmHg 81%
    20:00 +20°C° 0 mm 5 mps 749 mmHg 84%
    21:00 +20°C° 0 mm 5 mps 750 mmHg 87%
    22:00 +20°C° 0 mm 5 mps 750 mmHg 87%
    23:00 +19°C° 0 mm 4 mps 750 mmHg 88%

    16 December, Sunday

    Time Temperature Precipitation Wind Pressure Humidity
    00:00 +19°C° 0 mm 4 mps 750 mmHg 88%
    01:00 +19°C° 0.1 mm 4 mps 750 mmHg 89%
    02:00 +19°C° 0.1 mm 4 mps 750 mmHg 89%
    03:00 +19°C° 0.1 mm 4 mps 750 mmHg 89%
    04:00 +19°C° 0 mm 4 mps 750 mmHg 89%
    05:00 +19°C° 0 mm 4 mps 751 mmHg 88%
    06:00 +19°C° 0 mm 4 mps 751 mmHg 88%
    07:00 +20°C° 0 mm 4 mps 751 mmHg 81%
    08:00 +21°C° 0 mm 4 mps 752 mmHg 75%
    09:00 +24°C° 0 mm 3 mps 752 mmHg 69%
    10:00 +25°C° 0 mm 4 mps 752 mmHg 65%
    11:00 +25°C° 0 mm 4 mps 752 mmHg 62%
    12:00 +26°C° 0 mm 4 mps 752 mmHg 58%
    13:00 +26°C° 0 mm 4 mps 752 mmHg 59%
    14:00 +26°C° 0 mm 5 mps 751 mmHg 60%
    15:00 +26°C° 0 mm 5 mps 751 mmHg 61%
    16:00 +25°C° 0 mm 5 mps 751 mmHg 64%
    17:00 +23°C° 0 mm 5 mps 752 mmHg 67%
    18:00 +22°C° 0 mm 5 mps 752 mmHg 70%
    19:00 +22°C° 0 mm 4 mps 752 mmHg 73%
    20:00 +21°C° 0 mm 4 mps 753 mmHg 77%
    21:00 +20°C° 0 mm 4 mps 753 mmHg 80%
    22:00 +20°C° 0 mm 4 mps 753 mmHg 81%
    23:00 +20°C° 0 mm 3 mps 753 mmHg 82%

    17 December, Monday

    Time Temperature Precipitation Wind Pressure Humidity
    00:00 +19°C° 0 mm 3 mps 753 mmHg 83%
    01:00 +19°C° 0 mm 3 mps 753 mmHg 84%
    02:00 +19°C° 0 mm 2 mps 753 mmHg 86%
    03:00 +18°C° 0 mm 2 mps 753 mmHg 87%
    04:00 +19°C° 0 mm 3 mps 753 mmHg 84%
    05:00 +19°C° 0 mm 3 mps 754 mmHg 82%
    06:00 +19°C° 0 mm 3 mps 754 mmHg 80%
    07:00 +21°C° 0 mm 3 mps 754 mmHg 73%
    08:00 +22°C° 0 mm 3 mps 755 mmHg 65%
    09:00 +25°C° 0 mm 3 mps 755 mmHg 58%
    10:00 +26°C° 0 mm 4 mps 754 mmHg 54%
    11:00 +28°C° 0 mm 4 mps 754 mmHg 49%
    12:00 +29°C° 0 mm 4 mps 754 mmHg 45%
    13:00 +29°C° 0 mm 4 mps 753 mmHg 44%
    14:00 +30°C° 0 mm 5 mps 753 mmHg 44%
    15:00 +30°C° 0 mm 5 mps 753 mmHg 43%
    16:00 +29°C° 0 mm 6 mps 753 mmHg 49%
    17:00 +27°C° 0 mm 6 mps 753 mmHg 54%
    18:00 +26°C° 0 mm 6 mps 754 mmHg 60%
    19:00 +24°C° 0 mm 6 mps 754 mmHg 64%
    20:00 +22°C° 0 mm 5 mps 754 mmHg 69%
    21:00 +21°C° 0 mm 5 mps 754 mmHg 73%
    22:00 +21°C° 0 mm 5 mps 754 mmHg 73%
    23:00 +22°C° 0 mm 5 mps 753 mmHg 73%
    Show more